Simultaneous Nadir Overpasses (SNOs) Predictions

Prediction of SNOs between TERRA and METOP-C Satellite Orbit:

Table of predicted SNOs for the next 14.0 days since TLE Epoch: 11/23/2024
Index Date (TERRA) Time (TERRA) Lat,Lon (TERRA) SZA (TERRA ) Date (METOP-C) Time (METOP-C) Lat,Lon (METOP-C) SZA (METOP-C ) Distance(km) Time Diff (sec)
1 11/25/2024 11:54:39 59.25, -20.82 81.50 11/25/2024 11:53:43 59.26, -20.79 81.54 1.81 56
2 11/25/2024 12:42:37 -64.08, 150.32 94.26 11/25/2024 12:43:00 -64.08, 150.31 94.28 0.92 23
3 11/28/2024 02:23:23 62.00, 123.61 84.41 11/28/2024 02:23:13 62.01, 123.65 84.42 2.09 10
4 11/28/2024 03:11:29 -66.32, -65.06 91.78 11/28/2024 03:12:38 -66.32, -65.03 91.80 1.22 69
5 11/30/2024 16:04:33 -58.54, 96.22 98.15 11/30/2024 16:03:54 -58.54, 96.23 98.12 0.60 39
6 11/30/2024 16:52:13 64.26, -92.03 86.85 11/30/2024 16:52:50 64.27, -91.99 86.84 1.99 37
7 12/03/2024 05:45:53 54.27, 68.84 78.63 12/03/2024 05:44:44 54.26, 68.83 78.69 0.33 69
8 12/03/2024 06:33:24 -60.75,-119.77 95.81 12/03/2024 06:33:33 -60.74,-119.81 95.82 2.33 9
9 12/03/2024 07:13:21 80.13, 161.99 112.32 12/03/2024 07:14:33 79.44, 159.41 111.88 92.28 72
10 12/05/2024 20:14:22 57.74,-146.73 81.97 12/05/2024 20:14:01 57.73,-146.75 81.99 1.19 21



Historial Predications of SNOs between TERRA and METOP-C
